Berlin, NH

9:30 AM EDT on September 21, 2017 (GMT -0400)
Berlin Municipal

Weather History for KBML - April, 2013

Change the Weather History Date:

Monday, April 22, 2013

  Actual Average Record
Temperature  
Mean Temperature 34 °F -  
Max Temperature 53 °F 52 °F 78 °F (2008)
Min Temperature 17 °F 24 °F 14 °F (2002)
Degree Days  
Heating Degree Days 30    
Moisture  
Dew Point 15 °F    
Average Humidity 50    
Maximum Humidity 89    
Minimum Humidity 20    
Precipitation  
Precipitation 0.00 in - - ()
Sea Level Pressure  
Sea Level Pressure 30.71 in    
Wind  
Wind Speed 4 mph (SSE)    
Max Wind Speed 17 mph    
Max Gust Speed 22 mph    
Visibility 10 miles    
Events      
Averages and records for this station are not official NWS values.
T = Trace of Precipitation, MM = Missing Value Source: NWS Daily Summary

Daily Weather History Graph

Daily Weather History Graph

Search for Another Location

Airport or City:

Trip Planner

Search our weather history database for the weather conditions in past years. The results will help you decide how hot, cold, wet, or windy it might be!

Date:

Astronomy

Apr. 22, 2013 Rise Set
Actual Time 5:48 AM EDT 7:38 PM EDT
Civil Twilight 5:17 AM EDT 8:09 PM EDT
Nautical Twilight 4:39 AM EDT 8:47 PM EDT
Astronomical Twilight 3:58 AM EDT 9:29 PM EDT
Moon 4:17 PM EDT (4/22) 3:49 AM EDT (4/22)
Length of Visible Light 14h 52m
Length of Day
13h 49m
Waxing Gibbous, 87% of the Moon is Illuminated
Apr 22
Waxing Gibbous
Apr 25
Full
May 2
Last Quarter
May 9
New
May 18
First Quarter

Hourly Weather History & Observations

Time (EDT) Temp. Windchill Dew Point Humidity Pressure Visibility Wind Dir Wind Speed Gust Speed Precip Events Conditions
12:52 AM 21.9 °F - 18.0 °F 85% 30.73 in 10.0 mi Calm Calm - N/A   Clear
1:52 AM 19.9 °F - 16.0 °F 85% 30.73 in 10.0 mi Calm Calm - N/A   Clear
2:52 AM 19.0 °F - 15.1 °F 85% 30.73 in 10.0 mi Calm Calm - N/A   Clear
3:52 AM 19.0 °F - 15.1 °F 85% 30.75 in 10.0 mi Calm Calm - N/A   Clear
4:52 AM 17.1 °F - 12.9 °F 84% 30.76 in 10.0 mi Calm Calm - N/A   Clear
5:52 AM 17.1 °F - 12.9 °F 84% 30.77 in 10.0 mi Calm Calm - N/A   Clear
6:52 AM 21.9 °F - 19.0 °F 89% 30.79 in 10.0 mi Calm Calm - N/A   Clear
8:52 AM 36.0 °F - 21.9 °F 57% 30.79 in 10.0 mi Calm Calm - N/A   Clear
9:52 AM 44.1 °F 39.0 °F 10.9 °F 26% 30.77 in 10.0 mi SSE 9.2 mph - N/A   Clear
10:52 AM 45.0 °F 40.1 °F 10.0 °F 24% 30.76 in 10.0 mi ESE 9.2 mph - N/A   Clear
11:52 AM 48.9 °F - 12.0 °F 23% 30.76 in 10.0 mi SE 10.4 mph 20.7 mph N/A   Clear
12:52 PM 48.9 °F - 10.9 °F 22% 30.73 in 10.0 mi South 15.0 mph 21.9 mph N/A   Clear
1:52 PM 50.0 °F - 10.9 °F 21% 30.69 in 10.0 mi South 9.2 mph 20.7 mph N/A   Clear
2:52 PM 52.0 °F - 12.0 °F 20% 30.68 in 10.0 mi South 11.5 mph 18.4 mph N/A   Clear
3:52 PM 52.0 °F - 12.0 °F 20% 30.66 in 10.0 mi SSE 17.3 mph 21.9 mph N/A   Clear
4:52 PM 51.1 °F - 10.9 °F 20% 30.64 in 10.0 mi SSE 10.4 mph 19.6 mph N/A   Clear
5:52 PM 50.0 °F - 15.1 °F 25% 30.63 in 10.0 mi South 11.5 mph 19.6 mph N/A   Clear
6:52 PM 46.0 °F 40.2 °F 12.0 °F 25% 30.64 in 10.0 mi SSE 12.7 mph 19.6 mph N/A   Clear
7:52 PM 42.1 °F 37.7 °F 10.9 °F 28% 30.65 in 10.0 mi SSE 6.9 mph - N/A   Clear
8:52 PM 39.0 °F 31.0 °F 18.0 °F 43% 30.66 in 10.0 mi SSE 13.8 mph - N/A   Clear
9:52 PM 35.1 °F 30.1 °F 21.0 °F 57% 30.66 in 10.0 mi SE 5.8 mph - N/A   Clear
10:52 PM 34.0 °F 28.8 °F 25.0 °F 70% 30.65 in 10.0 mi SE 5.8 mph - N/A   Clear
11:52 PM 34.0 °F 26.0 °F 25.0 °F 70% 30.63 in 10.0 mi SE 10.4 mph - N/A   Clear